Location: Lake Almanor
(40.2485°N, 121.1442°W)
Time: 07:53:22
(UTC-08:00)

STARLINK-1079 - Pass Details

Date: 03 February 2020
Orbit: 348 x 351 km, 53.0° (Epoch: 18 February)

Event Time Altitude Azimuth Distance (km) Brightness Sun altitude
Rises 17:59:50 0° 305° (NW) 2,154 7.3 -7.1°
Reaches altitude 10° 18:01:52 10° 299° (WNW) 1,308 6.3 -7.5°
Maximum altitude 18:04:41 47° 224° (SW) 467 3.8 -8.0°
Drops below altitude 10° 18:07:30 10° 148° (SSE) 1,299 5.4 -8.5°
Sets 18:09:31 0° 142° (SE) 2,136 6.4 -8.9°
